Wetterdaten: aktuell Montag, 13.07.2020 11:22
Datum Zeit Temp. 2m Temp. 5cm Feuchte 2m Luftdruck Regen Wind Richtung Richtung Taupunkt Windchill Windben
13.07.2020 11:22 20,4 C 26,5 C 48 % 1027,0 hPa 0,0 l/m 6,3 km/h (2 Bft) NO 45 9,0 C 20,4 C 6,4 km/h (2 Bft)
13.07.2020 11:20 20,5 C 29,0 C 48 % 1027,0 hPa 0,0 l/m 6,5 km/h (2 Bft) N-NO 22 9,1 C 20,5 C 6,4 km/h (2 Bft)
13.07.2020 11:18 20,2 C 27,4 C 48 % 1027,0 hPa 0,0 l/m 7,0 km/h (2 Bft) O-NO 67 8,8 C 20,0 C 6,4 km/h (2 Bft)
13.07.2020 11:16 20,0 C 25,8 C 48 % 1026,8 hPa 0,0 l/m 7,5 km/h (2 Bft) O-NO 67 8,7 C 19,5 C 7,7 km/h (2 Bft)
13.07.2020 11:14 20,0 C 25,3 C 48 % 1026,8 hPa 0,0 l/m 7,7 km/h (2 Bft) O-NO 67 8,7 C 19,5 C 7,7 km/h (2 Bft)
13.07.2020 11:12 20,1 C 26,0 C 48 % 1026,8 hPa 0,0 l/m 8,0 km/h (2 Bft) O-NO 67 8,7 C 19,5 C 6,8 km/h (2 Bft)
13.07.2020 11:10 20,0 C 26,2 C 48 % 1026,8 hPa 0,0 l/m 7,7 km/h (2 Bft) O-NO 67 8,7 C 19,5 C 7,0 km/h (2 Bft)
13.07.2020 11:08 20,0 C 25,6 C 48 % 1026,8 hPa 0,0 l/m 7,2 km/h (2 Bft) O-NO 67 8,7 C 19,7 C 8,9 km/h (2 Bft)
13.07.2020 11:06 20,0 C 25,6 C 49 % 1026,8 hPa 0,0 l/m 7,2 km/h (2 Bft) O-NO 67 9,0 C 19,7 C 8,9 km/h (2 Bft)
13.07.2020 11:04 19,9 C 25,6 C 50 % 1026,8 hPa 0,0 l/m 7,2 km/h (2 Bft) O-NO 67 9,2 C 19,6 C 9,1 km/h (2 Bft)
13.07.2020 11:02 19,7 C 24,4 C 52 % 1026,8 hPa 0,0 l/m 7,0 km/h (2 Bft) O-NO 67 9,6 C 19,5 C 9,1 km/h (2 Bft)
13.07.2020 11:00 19,8 C 26,5 C 51 % 1026,8 hPa 0,0 l/m 7,5 km/h (2 Bft) O-NO 67 9,4 C 19,3 C 5,6 km/h (1 Bft)
13.07.2020 10:58 19,6 C 26,9 C 52 % 1026,8 hPa 0,0 l/m 8,0 km/h (2 Bft) O-NO 67 9,5 C 18,9 C 7,7 km/h (2 Bft)
13.07.2020 10:56 19,2 C 24,2 C 54 % 1026,9 hPa 0,0 l/m 8,7 km/h (2 Bft) O-NO 67 9,7 C 18,2 C 7,7 km/h (2 Bft)
13.07.2020 10:54 19,0 C 21,9 C 54 % 1026,9 hPa 0,0 l/m 8,7 km/h (2 Bft) NO 45 9,5 C 18,0 C 7,7 km/h (2 Bft)
13.07.2020 10:52 18,9 C 20,3 C 54 % 1026,9 hPa 0,0 l/m 8,9 km/h (2 Bft) O-NO 67 9,4 C 17,8 C 7,7 km/h (2 Bft)
13.07.2020 10:50 18,9 C 20,3 C 53 % 1026,9 hPa 0,0 l/m 9,4 km/h (2 Bft) O-NO 67 9,1 C 17,6 C 9,8 km/h (2 Bft)
13.07.2020 10:48 18,9 C 20,6 C 55 % 1026,9 hPa 0,0 l/m 9,2 km/h (2 Bft) O-NO 67 9,7 C 17,7 C 11,8 km/h (2 Bft)
13.07.2020 10:46 18,9 C 21,2 C 56 % 1026,9 hPa 0,0 l/m 9,2 km/h (2 Bft) O-NO 67 9,9 C 17,7 C 11,8 km/h (2 Bft)
13.07.2020 10:44 18,9 C 21,2 C 56 % 1026,9 hPa 0,0 l/m 9,2 km/h (2 Bft) NO 45 9,9 C 17,7 C 10,0 km/h (2 Bft)
13.07.2020 10:42 18,9 C 20,8 C 56 % 1026,9 hPa 0,0 l/m 9,2 km/h (2 Bft) O-NO 67 9,9 C 17,7 C 10,0 km/h (2 Bft)
13.07.2020 10:40 18,9 C 21,0 C 55 % 1026,9 hPa 0,0 l/m 9,2 km/h (2 Bft) O-NO 67 9,7 C 17,7 C 9,7 km/h (2 Bft)
13.07.2020 10:38 18,9 C 21,7 C 55 % 1026,9 hPa 0,0 l/m 9,4 km/h (2 Bft) NO 45 9,7 C 17,6 C 8,7 km/h (2 Bft)
13.07.2020 10:36 18,8 C 20,2 C 55 % 1027,0 hPa 0,0 l/m 10,4 km/h (2 Bft) O-NO 67 9,6 C 17,2 C 8,7 km/h (2 Bft)
13.07.2020 10:34 18,9 C 20,0 C 54 % 1027,0 hPa 0,0 l/m 10,6 km/h (2 Bft) NO 45 9,4 C 17,2 C 10,4 km/h (2 Bft)
13.07.2020 10:32 19,0 C 20,2 C 54 % 1027,0 hPa 0,0 l/m 11,3 km/h (2 Bft) NO 45 9,5 C 17,1 C 10,4 km/h (2 Bft)
13.07.2020 10:30 19,3 C 20,6 C 53 % 1027,0 hPa 0,0 l/m 10,9 km/h (2 Bft) NO 45 9,5 C 17,6 C 9,5 km/h (2 Bft)
13.07.2020 10:28 19,6 C 22,6 C 52 % 1027,0 hPa 0,0 l/m 10,9 km/h (2 Bft) NO 45 9,5 C 17,9 C 14,7 km/h (3 Bft)
13.07.2020 10:26 20,0 C 28,1 C 52 % 1027,0 hPa 0,0 l/m 10,9 km/h (2 Bft) O-NO 67 9,8 C 18,4 C 13,3 km/h (3 Bft)
13.07.2020 10:24 20,1 C 28,7 C 52 % 1027,0 hPa 0,0 l/m 10,1 km/h (2 Bft) NO 45 9,9 C 18,7 C 14,7 km/h (3 Bft)
13.07.2020 10:22 20,1 C 28,8 C 53 % 1027,0 hPa 0,0 l/m 9,9 km/h (2 Bft) O-NO 67 10,2 C 18,8 C 14,7 km/h (3 Bft)
13.07.2020 10:20 19,7 C 28,1 C 54 % 1027,0 hPa 0,0 l/m 9,2 km/h (2 Bft) NO 45 10,1 C 18,6 C 8,5 km/h (2 Bft)
13.07.2020 10:18 19,5 C 26,1 C 52 % 1027,0 hPa 0,0 l/m 9,2 km/h (2 Bft) O 90 9,4 C 18,4 C 12,4 km/h (3 Bft)
13.07.2020 10:16 19,4 C 26,1 C 52 % 1027,2 hPa 0,0 l/m 8,9 km/h (2 Bft) O-NO 67 9,3 C 18,4 C 10,8 km/h (2 Bft)
13.07.2020 10:14 19,3 C 26,1 C 53 % 1027,2 hPa 0,0 l/m 9,2 km/h (2 Bft) NO 45 9,5 C 18,2 C 8,9 km/h (2 Bft)
13.07.2020 10:12 19,1 C 25,6 C 53 % 1027,2 hPa 0,0 l/m 8,9 km/h (2 Bft) N-NO 22 9,3 C 18,0 C 4,6 km/h (1 Bft)
13.07.2020 10:10 18,9 C 25,6 C 57 % 1027,2 hPa 0,0 l/m 8,9 km/h (2 Bft) N-NO 22 10,2 C 17,8 C 4,6 km/h (1 Bft)
13.07.2020 10:08 18,9 C 25,6 C 57 % 1027,2 hPa 0,0 l/m 8,9 km/h (2 Bft) N-NO 22 10,2 C 17,8 C 11,8 km/h (2 Bft)
13.07.2020 10:06 18,9 C 25,6 C 57 % 1027,2 hPa 0,0 l/m 8,9 km/h (2 Bft) N-NO 22 10,2 C 17,8 C 4,6 km/h (1 Bft)
13.07.2020 10:04 18,9 C 25,6 C 57 % 1027,2 hPa 0,0 l/m 8,9 km/h (2 Bft) N-NO 22 10,2 C 17,8 C 4,6 km/h (1 Bft)
13.07.2020 10:02 18,9 C 25,6 C 57 % 1027,2 hPa 0,0 l/m 8,9 km/h (2 Bft) N-NO 22 10,2 C 17,8 C 8,9 km/h (2 Bft)
13.07.2020 10:00 18,6 C 25,1 C 56 % 1027,2 hPa 0,0 l/m 9,2 km/h (2 Bft) NO 45 9,6 C 17,4 C 8,9 km/h (2 Bft)
13.07.2020 09:58 18,6 C 25,0 C 57 % 1027,2 hPa 0,0 l/m 8,7 km/h (2 Bft) NO 45 9,9 C 17,6 C 11,2 km/h (2 Bft)
13.07.2020 09:56 18,6 C 25,2 C 57 % 1027,4 hPa 0,0 l/m 8,7 km/h (2 Bft) NO 45 9,9 C 17,6 C 11,2 km/h (2 Bft)
13.07.2020 09:54 18,5 C 24,7 C 57 % 1027,4 hPa 0,0 l/m 8,7 km/h (2 Bft) O-NO 67 9,8 C 17,5 C 10,0 km/h (2 Bft)
13.07.2020 09:52 18,3 C 25,2 C 58 % 1027,4 hPa 0,0 l/m 8,7 km/h (2 Bft) O-NO 67 9,9 C 17,3 C 10,0 km/h (2 Bft)
13.07.2020 09:50 18,2 C 25,0 C 58 % 1027,4 hPa 0,0 l/m 8,9 km/h (2 Bft) NO 45 9,8 C 17,1 C 7,7 km/h (2 Bft)
13.07.2020 09:48 18,1 C 24,2 C 58 % 1027,4 hPa 0,0 l/m 9,2 km/h (2 Bft) O-NO 67 9,7 C 16,9 C 5,4 km/h (1 Bft)
13.07.2020 09:46 18,0 C 22,8 C 58 % 1027,4 hPa 0,0 l/m 9,2 km/h (2 Bft) O-SO 112 9,6 C 16,7 C 10,0 km/h (2 Bft)
13.07.2020 09:44 18,0 C 22,7 C 58 % 1027,4 hPa 0,0 l/m 9,4 km/h (2 Bft) O-NO 67 9,6 C 16,7 C 10,0 km/h (2 Bft)
13.07.2020 09:42 18,0 C 22,2 C 59 % 1027,4 hPa 0,0 l/m 9,9 km/h (2 Bft) NO 45 9,9 C 16,5 C 10,8 km/h (2 Bft)
13.07.2020 09:40 18,0 C 22,3 C 60 % 1027,4 hPa 0,0 l/m 10,1 km/h (2 Bft) O-NO 67 10,1 C 16,4 C 10,8 km/h (2 Bft)
13.07.2020 09:38 17,8 C 22,3 C 61 % 1027,4 hPa 0,0 l/m 9,4 km/h (2 Bft) N-NO 22 10,2 C 16,4 C 10,4 km/h (2 Bft)
13.07.2020 09:36 17,7 C 21,1 C 60 % 1027,3 hPa 0,0 l/m 9,4 km/h (2 Bft) N-NO 22 9,8 C 16,3 C 9,8 km/h (2 Bft)
13.07.2020 09:34 17,6 C 20,1 C 61 % 1027,3 hPa 0,0 l/m 9,7 km/h (2 Bft) NO 45 10,0 C 16,1 C 10,2 km/h (2 Bft)
13.07.2020 09:32 17,6 C 19,9 C 61 % 1027,3 hPa 0,0 l/m 9,7 km/h (2 Bft) NO 45 10,0 C 16,1 C 10,2 km/h (2 Bft)
13.07.2020 09:30 17,5 C 19,3 C 63 % 1027,3 hPa 0,0 l/m 9,9 km/h (2 Bft) NO 45 10,4 C 15,9 C 9,5 km/h (2 Bft)
13.07.2020 09:28 17,3 C 17,4 C 63 % 1027,3 hPa 0,0 l/m 9,9 km/h (2 Bft) N-NO 22 10,2 C 15,7 C 11,6 km/h (2 Bft)
13.07.2020 09:26 17,1 C 15,7 C 63 % 1027,3 hPa 0,0 l/m 10,1 km/h (2 Bft) NO 45 10,0 C 15,4 C 10,2 km/h (2 Bft)
13.07.2020 09:24 17,1 C 15,3 C 63 % 1027,3 hPa 0,0 l/m 9,7 km/h (2 Bft) NO 45 10,0 C 15,6 C 10,0 km/h (2 Bft)
13.07.2020 09:22 16,9 C 15,4 C 65 % 1027,3 hPa 0,0 l/m 9,4 km/h (2 Bft) NO 45 10,3 C 15,5 C 10,0 km/h (2 Bft)
13.07.2020 09:20 16,9 C 15,2 C 65 % 1027,3 hPa 0,0 l/m 9,2 km/h (2 Bft) N-NO 22 10,3 C 15,6 C 8,7 km/h (2 Bft)
13.07.2020 09:18 16,7 C 14,4 C 65 % 1027,3 hPa 0,0 l/m 8,7 km/h (2 Bft) N-NO 22 10,1 C 15,6 C 9,8 km/h (2 Bft)
13.07.2020 09:16 16,6 C 14,6 C 66 % 1027,6 hPa 0,0 l/m 8,7 km/h (2 Bft) SO 135 10,2 C 15,5 C 9,8 km/h (2 Bft)
13.07.2020 09:14 16,6 C 14,9 C 67 % 1027,6 hPa 0,0 l/m 8,4 km/h (2 Bft) N-NO 22 10,4 C 15,6 C 8,3 km/h (2 Bft)
13.07.2020 09:12 16,3 C 14,5 C 68 % 1027,6 hPa 0,0 l/m 8,2 km/h (2 Bft) N 360 10,4 C 15,4 C 8,1 km/h (2 Bft)
13.07.2020 09:10 16,0 C 14,3 C 69 % 1027,6 hPa 0,0 l/m 8,0 km/h (2 Bft) N-NO 22 10,3 C 15,2 C 7,9 km/h (2 Bft)
13.07.2020 09:08 16,0 C 14,4 C 69 % 1027,6 hPa 0,0 l/m 7,7 km/h (2 Bft) N-NO 22 10,3 C 15,3 C 7,7 km/h (2 Bft)
13.07.2020 09:06 16,0 C 14,7 C 69 % 1027,6 hPa 0,0 l/m 7,5 km/h (2 Bft) O-NO 67 10,3 C 15,4 C 7,9 km/h (2 Bft)
13.07.2020 09:04 15,9 C 15,1 C 70 % 1027,6 hPa 0,0 l/m 7,2 km/h (2 Bft) NO 45 10,4 C 15,5 C 7,9 km/h (2 Bft)
13.07.2020 09:02 15,7 C 15,0 C 71 % 1027,6 hPa 0,0 l/m 7,0 km/h (2 Bft) NO 45 10,5 C 15,4 C 8,9 km/h (2 Bft)
13.07.2020 09:00 15,6 C 14,4 C 71 % 1027,6 hPa 0,0 l/m 6,5 km/h (2 Bft) NO 45 10,4 C 15,6 C 8,9 km/h (2 Bft)
13.07.2020 08:58 15,5 C 14,2 C 72 % 1027,6 hPa 0,0 l/m 6,3 km/h (2 Bft) N-NO 22 10,5 C 15,5 C 8,5 km/h (2 Bft)
13.07.2020 08:56 15,2 C 14,1 C 72 % 1027,6 hPa 0,0 l/m 6,3 km/h (2 Bft) NO 45 10,2 C 15,2 C 6,0 km/h (2 Bft)
13.07.2020 08:54 15,1 C 14,2 C 73 % 1027,6 hPa 0,0 l/m 6,5 km/h (2 Bft) N-NO 22 10,3 C 15,1 C 4,6 km/h (1 Bft)
13.07.2020 08:52 15,0 C 13,8 C 73 % 1027,6 hPa 0,0 l/m 6,8 km/h (2 Bft) N-NO 22 10,2 C 14,8 C 6,4 km/h (2 Bft)
13.07.2020 08:50 15,0 C 13,8 C 73 % 1027,6 hPa 0,0 l/m 7,0 km/h (2 Bft) NO 45 10,2 C 14,7 C 7,0 km/h (2 Bft)
13.07.2020 08:48 14,9 C 13,8 C 74 % 1027,6 hPa 0,0 l/m 7,2 km/h (2 Bft) N-NO 22 10,3 C 14,4 C 9,3 km/h (2 Bft)
13.07.2020 08:46 14,8 C 13,6 C 74 % 1027,6 hPa 0,0 l/m 7,5 km/h (2 Bft) NO 45 10,2 C 14,2 C 9,3 km/h (2 Bft)
13.07.2020 08:44 14,8 C 13,4 C 75 % 1027,6 hPa 0,0 l/m 7,0 km/h (2 Bft) NO 45 10,4 C 14,5 C 9,3 km/h (2 Bft)
13.07.2020 08:42 14,7 C 13,4 C 76 % 1027,6 hPa 0,0 l/m 7,0 km/h (2 Bft) N-NO 22 10,5 C 14,4 C 5,8 km/h (2 Bft)
13.07.2020 08:40 14,7 C 13,4 C 76 % 1027,6 hPa 0,0 l/m 6,5 km/h (2 Bft) N-NO 22 10,5 C 14,7 C 8,1 km/h (2 Bft)
13.07.2020 08:38 14,7 C 13,6 C 77 % 1027,6 hPa 0,0 l/m 6,0 km/h (2 Bft) NO 45 10,7 C 14,7 C 8,1 km/h (2 Bft)
13.07.2020 08:36 14,5 C 13,4 C 77 % 1027,5 hPa 0,0 l/m 5,8 km/h (2 Bft) N-NO 22 10,5 C 14,5 C 6,0 km/h (2 Bft)
13.07.2020 08:34 14,4 C 13,1 C 77 % 1027,5 hPa 0,0 l/m 5,3 km/h (1 Bft) NO 45 10,4 C 14,4 C 5,4 km/h (1 Bft)
13.07.2020 08:32 14,3 C 13,0 C 78 % 1027,5 hPa 0,0 l/m 5,3 km/h (1 Bft) N-NO 22 10,5 C 14,3 C 5,2 km/h (1 Bft)
13.07.2020 08:30 14,2 C 13,0 C 78 % 1027,5 hPa 0,0 l/m 5,6 km/h (1 Bft) NO 45 10,4 C 14,2 C 4,2 km/h (1 Bft)
13.07.2020 08:28 14,2 C 13,0 C 78 % 1027,5 hPa 0,0 l/m 5,6 km/h (1 Bft) O 90 10,4 C 14,2 C 7,9 km/h (2 Bft)
13.07.2020 08:26 14,0 C 13,2 C 78 % 1027,5 hPa 0,0 l/m 5,6 km/h (1 Bft) O-NO 67 10,2 C 14,0 C 4,2 km/h (1 Bft)
13.07.2020 08:24 14,0 C 13,0 C 78 % 1027,5 hPa 0,0 l/m 5,6 km/h (1 Bft) O-NO 67 10,2 C 14,0 C 4,8 km/h (1 Bft)
13.07.2020 08:22 13,9 C 13,0 C 79 % 1027,5 hPa 0,0 l/m 5,6 km/h (1 Bft) NO 45 10,3 C 13,9 C 5,8 km/h (2 Bft)
13.07.2020 08:20 13,8 C 13,0 C 79 % 1027,5 hPa 0,0 l/m 5,3 km/h (1 Bft) O-NO 67 10,2 C 13,8 C 5,8 km/h (2 Bft)
13.07.2020 08:18 13,6 C 13,0 C 80 % 1027,5 hPa 0,0 l/m 5,3 km/h (1 Bft) O 90 10,2 C 13,6 C 5,0 km/h (1 Bft)
13.07.2020 08:16 13,5 C 12,6 C 80 % 1027,2 hPa 0,0 l/m 5,1 km/h (1 Bft) NO 45 10,1 C 13,5 C 5,2 km/h (1 Bft)
13.07.2020 08:14 13,4 C 12,6 C 81 % 1027,2 hPa 0,0 l/m 5,1 km/h (1 Bft) NO 45 10,2 C 13,4 C 5,2 km/h (1 Bft)
13.07.2020 08:12 13,4 C 12,5 C 81 % 1027,2 hPa 0,0 l/m 4,8 km/h (1 Bft) O-NO 67 10,2 C 13,4 C 5,4 km/h (1 Bft)
13.07.2020 08:10 13,2 C 12,5 C 81 % 1027,2 hPa 0,0 l/m 5,1 km/h (1 Bft) NO 45 10,0 C 13,2 C 6,2 km/h (2 Bft)
13.07.2020 08:08 13,1 C 12,3 C 81 % 1027,2 hPa 0,0 l/m 4,3 km/h (1 Bft) N-NO 22 9,9 C 13,1 C 6,2 km/h (2 Bft)
13.07.2020 08:06 12,9 C 12,2 C 82 % 1027,2 hPa 0,0 l/m 4,1 km/h (1 Bft) O-NO 67 9,9 C 12,9 C 4,6 km/h (1 Bft)
13.07.2020 08:04 12,8 C 12,0 C 82 % 1027,2 hPa 0,0 l/m 4,1 km/h (1 Bft) O-NO 67 9,8 C 12,8 C 3,9 km/h (1 Bft)
13.07.2020 08:02 12,8 C 11,9 C 82 % 1027,2 hPa 0,0 l/m 4,3 km/h (1 Bft) O-NO 67 9,8 C 12,8 C 5,8 km/h (2 Bft)
13.07.2020 08:00 12,7 C 12,0 C 83 % 1027,2 hPa 0,0 l/m 4,6 km/h (1 Bft) O-NO 67 9,9 C 12,7 C 5,8 km/h (2 Bft)
13.07.2020 07:58 12,7 C 12,0 C 83 % 1027,2 hPa 0,0 l/m 4,8 km/h (1 Bft) O-NO 67 9,9 C 12,7 C 3,5 km/h (1 Bft)
13.07.2020 07:56 12,6 C 12,0 C 83 % 1027,6 hPa 0,0 l/m 5,3 km/h (1 Bft) O-NO 67 9,8 C 12,6 C 4,2 km/h (1 Bft)
13.07.2020 07:54 12,5 C 12,0 C 83 % 1027,6 hPa 0,0 l/m 5,6 km/h (1 Bft) O-NO 67 9,7 C 12,5 C 4,2 km/h (1 Bft)
13.07.2020 07:52 12,4 C 11,9 C 83 % 1027,6 hPa 0,0 l/m 5,3 km/h (1 Bft) O-NO 67 9,6 C 12,4 C 4,6 km/h (1 Bft)
13.07.2020 07:50 12,2 C 11,7 C 83 % 1027,6 hPa 0,0 l/m 5,1 km/h (1 Bft) O-SO 112 9,4 C 12,2 C 4,6 km/h (1 Bft)
13.07.2020 07:48 12,1 C 11,8 C 83 % 1027,6 hPa 0,0 l/m 4,8 km/h (1 Bft) O-NO 67 9,3 C 12,1 C 4,6 km/h (1 Bft)
13.07.2020 07:46 12,0 C 11,7 C 83 % 1027,6 hPa 0,0 l/m 4,3 km/h (1 Bft) O-NO 67 9,2 C 12,0 C 5,8 km/h (2 Bft)
13.07.2020 07:44 11,9 C 11,7 C 83 % 1027,6 hPa 0,0 l/m 3,9 km/h (1 Bft) O-NO 67 9,1 C 11,9 C 5,8 km/h (2 Bft)
13.07.2020 07:42 11,9 C 11,7 C 83 % 1027,6 hPa 0,0 l/m 3,9 km/h (1 Bft) NO 45 9,1 C 11,9 C 3,1 km/h (1 Bft)
13.07.2020 07:40 11,7 C 11,7 C 83 % 1027,6 hPa 0,0 l/m 3,6 km/h (1 Bft) NO 45 8,9 C 11,7 C 3,3 km/h (1 Bft)
13.07.2020 07:38 11,6 C 11,7 C 83 % 1027,6 hPa 0,0 l/m 3,6 km/h (1 Bft) O-SO 112 8,8 C 11,6 C 3,5 km/h (1 Bft)
13.07.2020 07:36 11,6 C 11,6 C 83 % 1027,6 hPa 0,0 l/m 3,9 km/h (1 Bft) O 90 8,8 C 11,6 C 4,1 km/h (1 Bft)
13.07.2020 07:34 11,6 C 11,7 C 83 % 1027,6 hPa 0,0 l/m 3,6 km/h (1 Bft) O-NO 67 8,8 C 11,6 C 4,1 km/h (1 Bft)
13.07.2020 07:32 11,5 C 11,6 C 83 % 1027,6 hPa 0,0 l/m 4,1 km/h (1 Bft) NO 45 8,7 C 11,5 C 3,3 km/h (1 Bft)
13.07.2020 07:30 11,4 C 11,7 C 83 % 1027,6 hPa 0,0 l/m 4,6 km/h (1 Bft) NO 45 8,6 C 11,4 C 3,5 km/h (1 Bft)
13.07.2020 07:28 11,3 C 11,6 C 83 % 1027,6 hPa 0,0 l/m 4,8 km/h (1 Bft) O-NO 67 8,5 C 11,3 C 7,1 km/h (2 Bft)
13.07.2020 07:26 11,3 C 11,6 C 83 % 1027,6 hPa 0,0 l/m 4,8 km/h (1 Bft) NO 45 8,5 C 11,3 C 3,3 km/h (1 Bft)
13.07.2020 07:24 11,2 C 11,8 C 83 % 1027,6 hPa 0,0 l/m 4,6 km/h (1 Bft) O 90 8,4 C 11,2 C 6,8 km/h (2 Bft)
13.07.2020 07:22 11,1 C 11,6 C 83 % 1027,6 hPa 0,0 l/m 4,3 km/h (1 Bft) O-NO 67 8,3 C 11,1 C 6,8 km/h (2 Bft)
13.07.2020 07:20 11,1 C 11,6 C 83 % 1027,6 hPa 0,0 l/m 3,9 km/h (1 Bft) O-NO 67 8,3 C 11,1 C 5,2 km/h (1 Bft)
13.07.2020 07:18 11,0 C 11,7 C 83 % 1027,6 hPa 0,0 l/m 3,1 km/h (1 Bft) O-NO 67 8,2 C 11,0 C 5,2 km/h (1 Bft)
13.07.2020 07:16 10,9 C 11,6 C 83 % 1027,3 hPa 0,0 l/m 2,2 km/h (1 Bft) NO 45 8,1 C 10,9 C 4,6 km/h (1 Bft)
13.07.2020 07:14 10,9 C 11,6 C 83 % 1027,3 hPa 0,0 l/m 2,2 km/h (1 Bft) NO 45 8,1 C 10,9 C 3,1 km/h (1 Bft)
13.07.2020 07:12 10,8 C 11,3 C 83 % 1027,3 hPa 0,0 l/m 1,9 km/h (1 Bft) O-NO 67 8,0 C 10,8 C 3,1 km/h (1 Bft)
13.07.2020 07:10 10,3 C 11,3 C 83 % 1027,3 hPa 0,0 l/m 0,2 km/h (0 Bft) O-NO 67 7,5 C 10,3 C 2,3 km/h (1 Bft)
13.07.2020 07:08 10,3 C 11,3 C 83 % 1027,3 hPa 0,0 l/m 0,2 km/h (0 Bft) O-NO 67 7,5 C 10,3 C 2,3 km/h (1 Bft)
13.07.2020 07:06 10,3 C 11,3 C 83 % 1027,3 hPa 0,0 l/m 0,2 km/h (0 Bft) O-NO 67 7,5 C 10,3 C 2,3 km/h (1 Bft)
13.07.2020 07:04 10,3 C 11,3 C 83 % 1027,3 hPa 0,0 l/m 0,2 km/h (0 Bft) O-NO 67 7,5 C 10,3 C 2,3 km/h (1 Bft)
13.07.2020 07:02 10,3 C 11,3 C 83 % 1027,3 hPa 0,0 l/m 0,2 km/h (0 Bft) O-NO 67 7,5 C 10,3 C 2,3 km/h (1 Bft)
13.07.2020 07:00 10,3 C 11,2 C 83 % 1027,3 hPa 0,0 l/m 0,2 km/h (0 Bft) O-NO 67 7,5 C 10,3 C 0,0 km/h (0 Bft)
13.07.2020 06:58 10,2 C 11,0 C 83 % 1027,3 hPa 0,0 l/m 0,2 km/h (0 Bft) O-SO 112 7,4 C 10,2 C 0,0 km/h (0 Bft)
13.07.2020 06:56 10,1 C 11,0 C 83 % 1027,5 hPa 0,0 l/m 0,2 km/h (0 Bft) SO 135 7,3 C 10,1 C 0,0 km/h (0 Bft)
13.07.2020 06:54 10,0 C 11,0 C 83 % 1027,5 hPa 0,0 l/m 0,2 km/h (0 Bft) S 180 7,2 C 10,0 C 0,0 km/h (0 Bft)
13.07.2020 06:52 9,9 C 10,8 C 83 % 1027,5 hPa 0,0 l/m 0,2 km/h (0 Bft) S-SO 157 7,2 C 9,9 C 0,0 km/h (0 Bft)
13.07.2020 06:50 9,8 C 10,6 C 83 % 1027,5 hPa 0,0 l/m 0,2 km/h (0 Bft) S 180 7,1 C 9,8 C 2,1 km/h (1 Bft)
13.07.2020 06:48 9,8 C 10,5 C 83 % 1027,5 hPa 0,0 l/m 0,5 km/h (0 Bft) S-SW 202 7,1 C 9,8 C 2,1 km/h (1 Bft)
13.07.2020 06:46 9,8 C 10,6 C 83 % 1027,5 hPa 0,0 l/m 1,0 km/h (0 Bft) S 180 7,1 C 9,8 C 2,1 km/h (1 Bft)
13.07.2020 06:44 9,6 C 10,6 C 83 % 1027,5 hPa 0,0 l/m 1,7 km/h (1 Bft) SW 225 6,9 C 9,6 C 0,0 km/h (0 Bft)
13.07.2020 06:42 9,6 C 10,6 C 83 % 1027,5 hPa 0,0 l/m 1,9 km/h (1 Bft) SW 225 6,9 C 9,6 C 0,0 km/h (0 Bft)
13.07.2020 06:40 9,6 C 10,7 C 83 % 1027,5 hPa 0,0 l/m 2,4 km/h (1 Bft) S-SW 202 6,9 C 9,6 C 2,3 km/h (1 Bft)
13.07.2020 06:38 9,4 C 10,6 C 83 % 1027,5 hPa 0,0 l/m 3,1 km/h (1 Bft) S-SW 202 6,7 C 9,4 C 2,7 km/h (1 Bft)
13.07.2020 06:36 9,4 C 10,5 C 83 % 1027,4 hPa 0,0 l/m 3,1 km/h (1 Bft) S-SW 202 6,7 C 9,4 C 3,5 km/h (1 Bft)
13.07.2020 06:34 9,3 C 10,5 C 83 % 1027,4 hPa 0,0 l/m 3,6 km/h (1 Bft) S 180 6,6 C 9,3 C 3,5 km/h (1 Bft)
13.07.2020 06:32 9,2 C 10,3 C 83 % 1027,4 hPa 0,0 l/m 4,1 km/h (1 Bft) S 180 6,5 C 9,2 C 2,7 km/h (1 Bft)
13.07.2020 06:30 9,1 C 10,2 C 83 % 1027,4 hPa 0,0 l/m 4,3 km/h (1 Bft) S-SW 202 6,4 C 9,1 C 3,5 km/h (1 Bft)
13.07.2020 06:28 9,1 C 10,1 C 83 % 1027,4 hPa 0,0 l/m 4,6 km/h (1 Bft) S 180 6,4 C 9,1 C 3,7 km/h (1 Bft)
13.07.2020 06:26 9,1 C 10,0 C 83 % 1027,4 hPa 0,0 l/m 4,1 km/h (1 Bft) S 180 6,4 C 9,1 C 4,1 km/h (1 Bft)
13.07.2020 06:24 9,0 C 9,9 C 83 % 1027,4 hPa 0,0 l/m 3,4 km/h (1 Bft) S 180 6,3 C 9,0 C 4,4 km/h (1 Bft)
13.07.2020 06:22 9,0 C 10,1 C 83 % 1027,4 hPa 0,0 l/m 2,4 km/h (1 Bft) S 180 6,3 C 9,0 C 4,4 km/h (1 Bft)
13.07.2020 06:20 9,0 C 10,1 C 83 % 1027,4 hPa 0,0 l/m 1,7 km/h (1 Bft) S-SW 202 6,3 C 9,0 C 4,1 km/h (1 Bft)
13.07.2020 06:18 9,0 C 10,1 C 83 % 1027,4 hPa 0,0 l/m 0,7 km/h (0 Bft) S 180 6,3 C 9,0 C 2,9 km/h (1 Bft)
13.07.2020 06:16 9,0 C 10,1 C 83 % 1027,4 hPa 0,0 l/m 0,7 km/h (0 Bft) S 180 6,3 C 9,0 C 2,1 km/h (1 Bft)
13.07.2020 06:14 8,9 C 9,9 C 83 % 1027,4 hPa 0,0 l/m 1,7 km/h (1 Bft) S-SW 202 6,2 C 8,9 C 0,0 km/h (0 Bft)
13.07.2020 06:12 8,8 C 9,9 C 83 % 1027,4 hPa 0,0 l/m 2,9 km/h (1 Bft) S 180 6,1 C 8,8 C 0,0 km/h (0 Bft)
13.07.2020 06:10 8,8 C 9,9 C 83 % 1027,4 hPa 0,0 l/m 3,6 km/h (1 Bft) S-SW 202 6,1 C 8,8 C 0,0 km/h (0 Bft)
13.07.2020 06:08 8,8 C 9,9 C 83 % 1027,4 hPa 0,0 l/m 4,6 km/h (1 Bft) S-SW 202 6,1 C 8,8 C 3,5 km/h (1 Bft)
13.07.2020 06:06 8,7 C 9,8 C 83 % 1027,4 hPa 0,0 l/m 5,6 km/h (1 Bft) S-SW 202 6,0 C 8,7 C 6,0 km/h (2 Bft)
13.07.2020 06:04 8,7 C 9,8 C 83 % 1027,4 hPa 0,0 l/m 6,0 km/h (2 Bft) S 180 6,0 C 8,7 C 6,0 km/h (2 Bft)
13.07.2020 06:02 8,7 C 9,8 C 83 % 1027,4 hPa 0,0 l/m 5,8 km/h (2 Bft) S 180 6,0 C 8,7 C 4,4 km/h (1 Bft)
13.07.2020 06:00 8,7 C 9,9 C 83 % 1027,4 hPa 0,0 l/m 6,0 km/h (2 Bft) S-SW 202 6,0 C 8,7 C 5,6 km/h (1 Bft)
13.07.2020 05:58 8,7 C 9,8 C 83 % 1027,4 hPa 0,0 l/m 6,0 km/h (2 Bft) S-SO 157 6,0 C 8,7 C 5,6 km/h (1 Bft)
13.07.2020 05:56 8,7 C 9,8 C 83 % 1027,4 hPa 0,0 l/m 6,3 km/h (2 Bft) S 180 6,0 C 8,7 C 6,4 km/h (2 Bft)
13.07.2020 05:54 8,7 C 9,6 C 83 % 1027,4 hPa 0,0 l/m 6,5 km/h (2 Bft) S 180 6,0 C 8,6 C 6,4 km/h (2 Bft)
13.07.2020 05:52 8,6 C 9,6 C 83 % 1027,4 hPa 0,0 l/m 6,5 km/h (2 Bft) S-SW 202 5,9 C 8,5 C 5,0 km/h (1 Bft)
13.07.2020 05:50 8,6 C 9,6 C 83 % 1027,4 hPa 0,0 l/m 6,5 km/h (2 Bft) S-SW 202 5,9 C 8,5 C 4,6 km/h (1 Bft)
13.07.2020 05:48 8,6 C 9,5 C 83 % 1027,4 hPa 0,0 l/m 6,8 km/h (2 Bft) S 180 5,9 C 8,3 C 7,0 km/h (2 Bft)
13.07.2020 05:46 8,5 C 9,5 C 83 % 1027,4 hPa 0,0 l/m 6,5 km/h (2 Bft) S 180 5,8 C 8,4 C 7,0 km/h (2 Bft)
13.07.2020 05:44 8,5 C 9,5 C 83 % 1027,4 hPa 0,0 l/m 6,0 km/h (2 Bft) S 180 5,8 C 8,5 C 6,0 km/h (2 Bft)
13.07.2020 05:42 8,5 C 9,2 C 83 % 1027,4 hPa 0,0 l/m 5,6 km/h (1 Bft) S 180 5,8 C 8,5 C 5,6 km/h (1 Bft)
13.07.2020 05:40 8,5 C 9,4 C 83 % 1027,4 hPa 0,0 l/m 4,6 km/h (1 Bft) S 180 5,8 C 8,5 C 5,6 km/h (1 Bft)
13.07.2020 05:38 8,5 C 9,4 C 83 % 1027,4 hPa 0,0 l/m 3,6 km/h (1 Bft) S 180 5,8 C 8,5 C 4,8 km/h (1 Bft)
13.07.2020 05:36 8,5 C 9,4 C 83 % 1027,5 hPa 0,0 l/m 3,4 km/h (1 Bft) S 180 5,8 C 8,5 C 4,4 km/h (1 Bft)
13.07.2020 05:34 8,5 C 9,4 C 83 % 1027,5 hPa 0,0 l/m 3,1 km/h (1 Bft) S 180 5,8 C 8,5 C 4,6 km/h (1 Bft)
13.07.2020 05:32 8,5 C 9,1 C 83 % 1027,5 hPa 0,0 l/m 3,4 km/h (1 Bft) S 180 5,8 C 8,5 C 4,6 km/h (1 Bft)
13.07.2020 05:30 8,5 C 9,0 C 83 % 1027,5 hPa 0,0 l/m 3,9 km/h (1 Bft) S-SW 202 5,8 C 8,5 C 2,5 km/h (1 Bft)
13.07.2020 05:28 8,5 C 9,0 C 83 % 1027,5 hPa 0,0 l/m 5,1 km/h (1 Bft) S-SW 202 5,8 C 8,5 C 3,3 km/h (1 Bft)
13.07.2020 05:26 8,5 C 9,0 C 83 % 1027,5 hPa 0,0 l/m 5,8 km/h (2 Bft) S-SW 202 5,8 C 8,5 C 4,2 km/h (1 Bft)
13.07.2020 05:24 8,5 C 8,8 C 83 % 1027,5 hPa 0,0 l/m 6,0 km/h (2 Bft) S 180 5,8 C 8,5 C 4,8 km/h (1 Bft)
13.07.2020 05:22 8,5 C 8,8 C 82 % 1027,5 hPa 0,0 l/m 6,3 km/h (2 Bft) S 180 5,6 C 8,5 C 5,8 km/h (2 Bft)
13.07.2020 05:20 8,5 C 8,8 C 82 % 1027,5 hPa 0,0 l/m 6,3 km/h (2 Bft) S 180 5,6 C 8,5 C 6,0 km/h (2 Bft)
13.07.2020 05:18 8,5 C 9,0 C 82 % 1027,5 hPa 0,0 l/m 6,3 km/h (2 Bft) S 180 5,6 C 8,5 C 6,0 km/h (2 Bft)
13.07.2020 05:16 8,5 C 9,1 C 82 % 1027,6 hPa 0,0 l/m 6,3 km/h (2 Bft) S 180 5,6 C 8,5 C 6,4 km/h (2 Bft)
13.07.2020 05:14 8,5 C 9,1 C 82 % 1027,6 hPa 0,0 l/m 6,8 km/h (2 Bft) S-SO 157 5,6 C 8,2 C 6,4 km/h (2 Bft)
13.07.2020 05:12 8,5 C 9,1 C 82 % 1027,6 hPa 0,0 l/m 6,8 km/h (2 Bft) S-SO 157 5,6 C 8,2 C 5,6 km/h (1 Bft)
13.07.2020 05:10 8,5 C 9,0 C 82 % 1027,6 hPa 0,0 l/m 7,0 km/h (2 Bft) S 180 5,6 C 8,0 C 5,2 km/h (1 Bft)
13.07.2020 05:08 8,5 C 9,1 C 82 % 1027,6 hPa 0,0 l/m 7,5 km/h (2 Bft) S 180 5,6 C 7,6 C 5,4 km/h (1 Bft)
13.07.2020 05:06 8,5 C 9,1 C 82 % 1027,6 hPa 0,0 l/m 7,7 km/h (2 Bft) S 180 5,6 C 7,5 C 6,4 km/h (2 Bft)
13.07.2020 05:04 8,5 C 9,1 C 82 % 1027,6 hPa 0,0 l/m 7,5 km/h (2 Bft) S 180 5,6 C 7,6 C 6,6 km/h (2 Bft)
13.07.2020 05:01 8,5 C 9,1 C 82 % 1027,6 hPa 0,0 l/m 7,2 km/h (2 Bft) S 180 5,6 C 7,9 C 6,6 km/h (2 Bft)
13.07.2020 04:58 8,5 C 9,0 C 82 % 1027,6 hPa 0,0 l/m 6,3 km/h (2 Bft) S 180 5,6 C 8,5 C 6,6 km/h (2 Bft)
13.07.2020 04:56 8,6 C 9,0 C 82 % 1027,8 hPa 0,0 l/m 6,3 km/h (2 Bft) S-SW 202 5,7 C 8,6 C 6,2 km/h (2 Bft)
13.07.2020 04:54 8,6 C 9,1 C 82 % 1027,8 hPa 0,0 l/m 6,0 km/h (2 Bft) S 180 5,7 C 8,6 C 5,8 km/h (2 Bft)
13.07.2020 04:52 8,6 C 9,1 C 82 % 1027,8 hPa 0,0 l/m 6,3 km/h (2 Bft) S 180 5,7 C 8,6 C 5,2 km/h (1 Bft)
13.07.2020 04:50 8,6 C 9,1 C 82 % 1027,8 hPa 0,0 l/m 6,8 km/h (2 Bft) S 180 5,7 C 8,3 C 5,2 km/h (1 Bft)
13.07.2020 04:48 8,6 C 9,1 C 82 % 1027,8 hPa 0,0 l/m 7,0 km/h (2 Bft) S 180 5,7 C 8,1 C 5,8 km/h (2 Bft)
13.07.2020 04:46 8,6 C 9,2 C 82 % 1027,8 hPa 0,0 l/m 7,2 km/h (2 Bft) S 180 5,7 C 8,0 C 5,8 km/h (2 Bft)
13.07.2020 04:44 8,7 C 9,1 C 82 % 1027,8 hPa 0,0 l/m 7,0 km/h (2 Bft) S 180 5,8 C 8,2 C 7,1 km/h (2 Bft)
13.07.2020 04:42 8,7 C 9,0 C 82 % 1027,8 hPa 0,0 l/m 7,0 km/h (2 Bft) S 180 5,8 C 8,2 C 7,1 km/h (2 Bft)
13.07.2020 04:40 8,7 C 9,1 C 82 % 1027,8 hPa 0,0 l/m 6,8 km/h (2 Bft) S 180 5,8 C 8,4 C 7,0 km/h (2 Bft)
13.07.2020 04:38 8,7 C 9,1 C 82 % 1027,8 hPa 0,0 l/m 6,5 km/h (2 Bft) S 180 5,8 C 8,6 C 6,2 km/h (2 Bft)
13.07.2020 04:36 8,7 C 9,1 C 82 % 1027,9 hPa 0,0 l/m 6,3 km/h (2 Bft) S 180 5,8 C 8,7 C 5,4 km/h (1 Bft)
13.07.2020 04:34 8,7 C 9,1 C 82 % 1027,9 hPa 0,0 l/m 6,3 km/h (2 Bft) S 180 5,8 C 8,7 C 5,8 km/h (2 Bft)
13.07.2020 04:32 8,7 C 9,1 C 82 % 1027,9 hPa 0,0 l/m 6,0 km/h (2 Bft) S 180 5,8 C 8,7 C 5,8 km/h (2 Bft)
13.07.2020 04:30 8,8 C 9,0 C 82 % 1027,9 hPa 0,0 l/m 6,3 km/h (2 Bft) S-SW 202 5,9 C 8,8 C 5,2 km/h (1 Bft)
13.07.2020 04:28 8,8 C 9,0 C 82 % 1027,9 hPa 0,0 l/m 6,3 km/h (2 Bft) S 180 5,9 C 8,8 C 5,0 km/h (1 Bft)
13.07.2020 04:26 8,8 C 9,0 C 82 % 1027,9 hPa 0,0 l/m 6,3 km/h (2 Bft) S 180 5,9 C 8,8 C 5,2 km/h (1 Bft)
13.07.2020 04:24 8,8 C 9,4 C 82 % 1027,9 hPa 0,0 l/m 6,3 km/h (2 Bft) S 180 5,9 C 8,8 C 5,2 km/h (1 Bft)
13.07.2020 04:22 8,8 C 9,4 C 82 % 1027,9 hPa 0,0 l/m 6,5 km/h (2 Bft) S 180 5,9 C 8,7 C 6,2 km/h (2 Bft)
13.07.2020 04:20 8,8 C 9,4 C 82 % 1027,9 hPa 0,0 l/m 6,5 km/h (2 Bft) S 180 5,9 C 8,7 C 6,2 km/h (2 Bft)
13.07.2020 04:18 8,8 C 9,4 C 82 % 1027,9 hPa 0,0 l/m 6,3 km/h (2 Bft) S-SW 202 5,9 C 8,8 C 5,2 km/h (1 Bft)
13.07.2020 04:16 8,9 C 9,4 C 82 % 1027,9 hPa 0,0 l/m 5,8 km/h (2 Bft) S 180 6,0 C 8,9 C 5,6 km/h (1 Bft)
13.07.2020 04:14 8,9 C 9,4 C 82 % 1027,9 hPa 0,0 l/m 5,3 km/h (1 Bft) S 180 6,0 C 8,9 C 6,4 km/h (2 Bft)
13.07.2020 04:12 8,9 C 9,5 C 82 % 1027,9 hPa 0,0 l/m 4,8 km/h (1 Bft) S 180 6,0 C 8,9 C 6,4 km/h (2 Bft)
13.07.2020 04:10 8,9 C 9,4 C 82 % 1027,9 hPa 0,0 l/m 4,1 km/h (1 Bft) S 180 6,0 C 8,9 C 5,8 km/h (2 Bft)
13.07.2020 04:08 8,9 C 9,5 C 82 % 1027,9 hPa 0,0 l/m 3,6 km/h (1 Bft) S 180 6,0 C 8,9 C 4,6 km/h (1 Bft)
13.07.2020 04:06 8,9 C 9,6 C 82 % 1027,9 hPa 0,0 l/m 4,1 km/h (1 Bft) S 180 6,0 C 8,9 C 4,1 km/h (1 Bft)
13.07.2020 04:04 8,9 C 9,6 C 82 % 1027,9 hPa 0,0 l/m 4,6 km/h (1 Bft) S 180 6,0 C 8,9 C 4,1 km/h (1 Bft)
13.07.2020 04:02 8,9 C 9,5 C 82 % 1027,9 hPa 0,0 l/m 5,3 km/h (1 Bft) S 180 6,0 C 8,9 C 3,7 km/h (1 Bft)
13.07.2020 04:00 9,0 C 9,6 C 82 % 1027,9 hPa 0,0 l/m 6,3 km/h (2 Bft) S 180 6,1 C 9,0 C 4,2 km/h (1 Bft)
13.07.2020 03:58 9,0 C 9,7 C 82 % 1027,9 hPa 0,0 l/m 6,8 km/h (2 Bft) S-SO 157 6,1 C 8,7 C 4,8 km/h (1 Bft)
13.07.2020 03:56 9,0 C 9,7 C 82 % 1028,1 hPa 0,0 l/m 7,0 km/h (2 Bft) S 180 6,1 C 8,5 C 6,0 km/h (2 Bft)
13.07.2020 03:54 9,0 C 9,7 C 82 % 1028,1 hPa 0,0 l/m 7,0 km/h (2 Bft) S-SW 202 6,1 C 8,5 C 7,0 km/h (2 Bft)
13.07.2020 03:52 9,0 C 9,7 C 82 % 1028,1 hPa 0,0 l/m 7,0 km/h (2 Bft) S 180 6,1 C 8,5 C 7,0 km/h (2 Bft)
13.07.2020 03:50 9,0 C 9,7 C 82 % 1028,1 hPa 0,0 l/m 7,0 km/h (2 Bft) S 180 6,1 C 8,5 C 6,6 km/h (2 Bft)
13.07.2020 03:48 9,0 C 9,8 C 82 % 1028,1 hPa 0,0 l/m 7,0 km/h (2 Bft) S-SW 202 6,1 C 8,5 C 6,6 km/h (2 Bft)
13.07.2020 03:46 9,1 C 9,6 C 82 % 1028,1 hPa 0,0 l/m 7,0 km/h (2 Bft) S 180 6,2 C 8,7 C 6,2 km/h (2 Bft)
13.07.2020 03:44 9,1 C 9,6 C 82 % 1028,1 hPa 0,0 l/m 6,8 km/h (2 Bft) S 180 6,2 C 8,8 C 6,0 km/h (2 Bft)
13.07.2020 03:42 9,1 C 9,6 C 82 % 1028,1 hPa 0,0 l/m 6,8 km/h (2 Bft) S 180 6,2 C 8,8 C 7,0 km/h (2 Bft)
13.07.2020 03:40 9,1 C 9,7 C 82 % 1028,1 hPa 0,0 l/m 6,5 km/h (2 Bft) S 180 6,2 C 9,1 C 7,0 km/h (2 Bft)
13.07.2020 03:38 9,1 C 9,7 C 82 % 1028,1 hPa 0,0 l/m 6,0 km/h (2 Bft) S-SW 202 6,2 C 9,1 C 6,0 km/h (2 Bft)
13.07.2020 03:36 9,2 C 9,6 C 82 % 1028,2 hPa 0,0 l/m 6,0 km/h (2 Bft) S 180 6,3 C 9,2 C 5,6 km/h (1 Bft)
13.07.2020 03:34 9,2 C 9,6 C 82 % 1028,2 hPa 0,0 l/m 6,3 km/h (2 Bft) S 180 6,3 C 9,2 C 4,8 km/h (1 Bft)
13.07.2020 03:32 9,2 C 9,7 C 82 % 1028,2 hPa 0,0 l/m 6,8 km/h (2 Bft) S 180 6,3 C 8,9 C 4,8 km/h (1 Bft)
13.07.2020 03:30 9,2 C 9,7 C 82 % 1028,2 hPa 0,0 l/m 7,0 km/h (2 Bft) S 180 6,3 C 8,8 C 4,2 km/h (1 Bft)
13.07.2020 03:28 9,2 C 9,8 C 82 % 1028,2 hPa 0,0 l/m 7,0 km/h (2 Bft) S 180 6,3 C 8,8 C 5,8 km/h (2 Bft)
13.07.2020 03:26 9,2 C 9,8 C 82 % 1028,2 hPa 0,0 l/m 7,2 km/h (2 Bft) S 180 6,3 C 8,6 C 7,7 km/h (2 Bft)
13.07.2020 03:24 9,2 C 9,9 C 82 % 1028,2 hPa 0,0 l/m 7,0 km/h (2 Bft) S 180 6,3 C 8,8 C 7,7 km/h (2 Bft)
13.07.2020 03:22 9,2 C 9,9 C 82 % 1028,2 hPa 0,0 l/m 6,5 km/h (2 Bft) S-SW 202 6,3 C 9,2 C 6,6 km/h (2 Bft)
13.07.2020 03:20 9,2 C 9,9 C 82 % 1028,2 hPa 0,0 l/m 6,5 km/h (2 Bft) S 180 6,3 C 9,2 C 6,2 km/h (2 Bft)
13.07.2020 03:18 9,3 C 9,9 C 82 % 1028,2 hPa 0,0 l/m 6,0 km/h (2 Bft) S 180 6,4 C 9,3 C 5,2 km/h (1 Bft)
13.07.2020 03:16 9,3 C 9,7 C 82 % 1028,2 hPa 0,0 l/m 5,8 km/h (2 Bft) S 180 6,4 C 9,3 C 5,8 km/h (2 Bft)
13.07.2020 03:14 9,3 C 9,7 C 82 % 1028,2 hPa 0,0 l/m 5,3 km/h (1 Bft) S 180 6,4 C 9,3 C 5,8 km/h (2 Bft)
13.07.2020 03:12 9,3 C 9,7 C 82 % 1028,2 hPa 0,0 l/m 5,1 km/h (1 Bft) S 180 6,4 C 9,3 C 5,4 km/h (1 Bft)
13.07.2020 03:10 9,3 C 9,9 C 82 % 1028,2 hPa 0,0 l/m 4,1 km/h (1 Bft) S 180 6,4 C 9,3 C 5,4 km/h (1 Bft)
13.07.2020 03:08 9,3 C 9,9 C 82 % 1028,2 hPa 0,0 l/m 4,6 km/h (1 Bft) S 180 6,4 C 9,3 C 3,9 km/h (1 Bft)
13.07.2020 03:06 9,3 C 9,9 C 81 % 1028,2 hPa 0,0 l/m 5,1 km/h (1 Bft) S 180 6,2 C 9,3 C 3,9 km/h (1 Bft)
13.07.2020 03:04 9,3 C 10,1 C 81 % 1028,2 hPa 0,0 l/m 5,8 km/h (2 Bft) S-SO 157 6,2 C 9,3 C 3,9 km/h (1 Bft)
13.07.2020 03:02 9,3 C 10,1 C 81 % 1028,2 hPa 0,0 l/m 5,8 km/h (2 Bft) S 180 6,2 C 9,3 C 3,9 km/h (1 Bft)
13.07.2020 03:00 9,3 C 9,9 C 81 % 1028,2 hPa 0,0 l/m 6,0 km/h (2 Bft) S 180 6,2 C 9,3 C 6,4 km/h (2 Bft)
13.07.2020 02:58 9,3 C 9,8 C 81 % 1028,2 hPa 0,0 l/m 6,3 km/h (2 Bft) S 180 6,2 C 9,3 C 7,5 km/h (2 Bft)
13.07.2020 02:56 9,3 C 9,9 C 81 % 1028,3 hPa 0,0 l/m 6,0 km/h (2 Bft) S-SW 202 6,2 C 9,3 C 7,5 km/h (2 Bft)
13.07.2020 02:54 9,3 C 9,9 C 81 % 1028,3 hPa 0,0 l/m 5,6 km/h (1 Bft) S 180 6,2 C 9,3 C 7,1 km/h (2 Bft)
13.07.2020 02:52 9,3 C 10,0 C 81 % 1028,3 hPa 0,0 l/m 5,8 km/h (2 Bft) S 180 6,2 C 9,3 C 5,0 km/h (1 Bft)
13.07.2020 02:50 9,4 C 10,0 C 81 % 1028,3 hPa 0,0 l/m 6,3 km/h (2 Bft) S 180 6,3 C 9,4 C 4,2 km/h (1 Bft)
13.07.2020 02:48 9,4 C 10,1 C 81 % 1028,3 hPa 0,0 l/m 7,2 km/h (2 Bft) S 180 6,3 C 8,8 C 5,2 km/h (1 Bft)
13.07.2020 02:46 9,4 C 9,9 C 81 % 1028,3 hPa 0,0 l/m 7,7 km/h (2 Bft) S 180 6,3 C 8,4 C 5,2 km/h (1 Bft)
13.07.2020 02:44 9,4 C 9,8 C 81 % 1028,3 hPa 0,0 l/m 7,7 km/h (2 Bft) S 180 6,3 C 8,4 C 7,0 km/h (2 Bft)
13.07.2020 02:42 9,4 C 10,0 C 81 % 1028,3 hPa 0,0 l/m 8,0 km/h (2 Bft) S 180 6,3 C 8,2 C 7,3 km/h (2 Bft)
13.07.2020 02:40 9,4 C 10,0 C 81 % 1028,3 hPa 0,0 l/m 8,0 km/h (2 Bft) S 180 6,3 C 8,2 C 7,7 km/h (2 Bft)
13.07.2020 02:38 9,4 C 10,0 C 81 % 1028,3 hPa 0,0 l/m 7,5 km/h (2 Bft) S 180 6,3 C 8,6 C 7,7 km/h (2 Bft)
13.07.2020 02:36 9,5 C 9,9 C 81 % 1028,4 hPa 0,0 l/m 7,5 km/h (2 Bft) S-SW 202 6,4 C 8,7 C 6,8 km/h (2 Bft)
13.07.2020 02:34 9,5 C 10,0 C 81 % 1028,4 hPa 0,0 l/m 7,5 km/h (2 Bft) S-SW 202 6,4 C 8,7 C 6,8 km/h (2 Bft)
13.07.2020 02:32 9,5 C 10,0 C 81 % 1028,4 hPa 0,0 l/m 7,2 km/h (2 Bft) SW 225 6,4 C 8,9 C 6,4 km/h (2 Bft)
13.07.2020 02:30 9,5 C 10,1 C 81 % 1028,4 hPa 0,0 l/m 7,2 km/h (2 Bft) S 180 6,4 C 8,9 C 7,3 km/h (2 Bft)
13.07.2020 02:28 9,5 C 10,1 C 81 % 1028,4 hPa 0,0 l/m 7,2 km/h (2 Bft) S 180 6,4 C 8,9 C 7,9 km/h (2 Bft)
13.07.2020 02:26 9,5 C 10,2 C 81 % 1028,4 hPa 0,0 l/m 7,0 km/h (2 Bft) S 180 6,4 C 9,1 C 7,9 km/h (2 Bft)
13.07.2020 02:24 9,5 C 10,2 C 81 % 1028,4 hPa 0,0 l/m 6,8 km/h (2 Bft) S 180 6,4 C 9,2 C 6,4 km/h (2 Bft)
13.07.2020 02:22 9,5 C 10,1 C 81 % 1028,4 hPa 0,0 l/m 7,0 km/h (2 Bft) S 180 6,4 C 9,1 C 6,0 km/h (2 Bft)
13.07.2020 02:20 9,5 C 10,1 C 81 % 1028,4 hPa 0,0 l/m 6,8 km/h (2 Bft) S 180 6,4 C 9,2 C 6,4 km/h (2 Bft)
13.07.2020 02:18 9,5 C 10,0 C 81 % 1028,4 hPa 0,0 l/m 6,8 km/h (2 Bft) S-SW 202 6,4 C 9,2 C 6,4 km/h (2 Bft)
13.07.2020 02:16 9,6 C 10,0 C 81 % 1028,6 hPa 0,0 l/m 6,3 km/h (2 Bft) S 180 6,5 C 9,6 C 4,6 km/h (1 Bft)
13.07.2020 02:14 9,6 C 10,0 C 81 % 1028,6 hPa 0,0 l/m 6,0 km/h (2 Bft) S 180 6,5 C 9,6 C 6,6 km/h (2 Bft)
13.07.2020 02:12 9,6 C 10,1 C 81 % 1028,6 hPa 0,0 l/m 5,8 km/h (2 Bft) S-SO 157 6,5 C 9,6 C 6,6 km/h (2 Bft)
13.07.2020 02:10 9,6 C 10,1 C 81 % 1028,6 hPa 0,0 l/m 5,6 km/h (1 Bft) S 180 6,5 C 9,6 C 5,2 km/h (1 Bft)
13.07.2020 02:08 9,6 C 10,1 C 81 % 1028,6 hPa 0,0 l/m 5,3 km/h (1 Bft) S 180 6,5 C 9,6 C 5,0 km/h (1 Bft)
13.07.2020 02:06 9,6 C 10,2 C 81 % 1028,6 hPa 0,0 l/m 4,8 km/h (1 Bft) S 180 6,5 C 9,6 C 4,2 km/h (1 Bft)
13.07.2020 02:04 9,6 C 10,2 C 81 % 1028,6 hPa 0,0 l/m 4,1 km/h (1 Bft) S 180 6,5 C 9,6 C 5,0 km/h (1 Bft)
13.07.2020 02:02 9,8 C 10,2 C 81 % 1028,6 hPa 0,0 l/m 3,9 km/h (1 Bft) S 180 6,7 C 9,8 C 5,0 km/h (1 Bft)
13.07.2020 02:00 9,8 C 10,2 C 81 % 1028,6 hPa 0,0 l/m 3,1 km/h (1 Bft) S 180 6,7 C 9,8 C 4,4 km/h (1 Bft)
13.07.2020 01:58 9,8 C 10,1 C 81 % 1028,6 hPa 0,0 l/m 2,7 km/h (1 Bft) S 180 6,7 C 9,8 C 3,1 km/h (1 Bft)
13.07.2020 01:56 9,8 C 9,8 C 81 % 1028,3 hPa 0,0 l/m 2,7 km/h (1 Bft) S 180 6,7 C 9,8 C 3,1 km/h (1 Bft)
13.07.2020 01:54 9,8 C 9,9 C 81 % 1028,3 hPa 0,0 l/m 3,1 km/h (1 Bft) S 180 6,7 C 9,8 C 3,1 km/h (1 Bft)
13.07.2020 01:52 9,8 C 10,0 C 81 % 1028,3 hPa 0,0 l/m 3,4 km/h (1 Bft) S 180 6,7 C 9,8 C 2,9 km/h (1 Bft)
13.07.2020 01:50 9,8 C 10,0 C 81 % 1028,3 hPa 0,0 l/m 3,4 km/h (1 Bft) S 180 6,7 C 9,8 C 3,3 km/h (1 Bft)
13.07.2020 01:48 9,8 C 9,9 C 81 % 1028,3 hPa 0,0 l/m 3,1 km/h (1 Bft) S-SW 202 6,7 C 9,8 C 3,9 km/h (1 Bft)
13.07.2020 01:46 9,8 C 10,0 C 81 % 1028,3 hPa 0,0 l/m 3,6 km/h (1 Bft) S-SW 202 6,7 C 9,8 C 3,9 km/h (1 Bft)
13.07.2020 01:44 9,9 C 9,9 C 81 % 1028,3 hPa 0,0 l/m 3,9 km/h (1 Bft) S-SW 202 6,8 C 9,9 C 4,2 km/h (1 Bft)
13.07.2020 01:42 9,9 C 10,0 C 81 % 1028,3 hPa 0,0 l/m 4,3 km/h (1 Bft) S-SW 202 6,8 C 9,9 C 4,2 km/h (1 Bft)
13.07.2020 01:40 9,9 C 10,2 C 81 % 1028,3 hPa 0,0 l/m 4,1 km/h (1 Bft) S-SW 202 6,8 C 9,9 C 3,7 km/h (1 Bft)
13.07.2020 01:38 9,9 C 10,4 C 81 % 1028,3 hPa 0,0 l/m 4,3 km/h (1 Bft) S-SW 202 6,8 C 9,9 C 5,0 km/h (1 Bft)
13.07.2020 01:36 9,9 C 10,1 C 81 % 1028,6 hPa 0,0 l/m 4,8 km/h (1 Bft) S 180 6,8 C 9,9 C 5,6 km/h (1 Bft)
13.07.2020 01:34 10,0 C 10,0 C 80 % 1028,6 hPa 0,0 l/m 4,6 km/h (1 Bft) S-SW 202 6,7 C 10,0 C 6,2 km/h (2 Bft)
13.07.2020 01:32 10,0 C 10,1 C 80 % 1028,6 hPa 0,0 l/m 4,8 km/h (1 Bft) S 180 6,7 C 10,0 C 6,2 km/h (2 Bft)
13.07.2020 01:30 10,0 C 9,9 C 80 % 1028,6 hPa 0,0 l/m 5,3 km/h (1 Bft) S 180 6,7 C 10,0 C 3,3 km/h (1 Bft)
13.07.2020 01:28 10,0 C 9,9 C 80 % 1028,6 hPa 0,0 l/m 5,8 km/h (2 Bft) S 180 6,7 C 10,0 C 4,6 km/h (1 Bft)
13.07.2020 01:26 10,0 C 9,9 C 80 % 1028,6 hPa 0,0 l/m 6,5 km/h (2 Bft) S 180 6,7 C 10,0 C 4,8 km/h (1 Bft)
13.07.2020 01:24 10,0 C 10,1 C 80 % 1028,6 hPa 0,0 l/m 6,3 km/h (2 Bft) S 180 6,7 C 10,0 C 6,4 km/h (2 Bft)
13.07.2020 01:22 10,0 C 10,2 C 80 % 1028,6 hPa 0,0 l/m 5,8 km/h (2 Bft) S 180 6,7 C 10,0 C 7,0 km/h (2 Bft)
13.07.2020 01:20 10,1 C 10,3 C 80 % 1028,6 hPa 0,0 l/m 5,3 km/h (1 Bft) S 180 6,8 C 10,1 C 7,0 km/h (2 Bft)
13.07.2020 01:18 10,1 C 10,2 C 80 % 1028,6 hPa 0,0 l/m 4,8 km/h (1 Bft) S 180 6,8 C 10,1 C 5,4 km/h (1 Bft)
13.07.2020 01:16 10,1 C 10,1 C 80 % 1028,6 hPa 0,0 l/m 5,1 km/h (1 Bft) S 180 6,8 C 10,1 C 5,0 km/h (1 Bft)
13.07.2020 01:14 10,1 C 10,1 C 80 % 1028,6 hPa 0,0 l/m 5,3 km/h (1 Bft) S 180 6,8 C 10,1 C 3,5 km/h (1 Bft)
13.07.2020 01:12 10,1 C 10,1 C 80 % 1028,6 hPa 0,0 l/m 6,0 km/h (2 Bft) S 180 6,8 C 10,1 C 5,2 km/h (1 Bft)
13.07.2020 01:10 10,1 C 10,2 C 80 % 1028,6 hPa 0,0 l/m 7,0 km/h (2 Bft) S 180 6,8 C 9,7 C 5,2 km/h (1 Bft)
13.07.2020 01:08 10,1 C 10,3 C 80 % 1028,6 hPa 0,0 l/m 7,2 km/h (2 Bft) S 180 6,8 C 9,5 C 5,4 km/h (1 Bft)
13.07.2020 01:06 10,2 C 10,3 C 80 % 1028,6 hPa 0,0 l/m 7,5 km/h (2 Bft) S 180 6,9 C 9,4 C 5,4 km/h (1 Bft)
13.07.2020 01:04 10,2 C 10,1 C 80 % 1028,6 hPa 0,0 l/m 7,5 km/h (2 Bft) S 180 6,9 C 9,4 C 6,6 km/h (2 Bft)
13.07.2020 01:02 10,2 C 10,1 C 80 % 1028,6 hPa 0,0 l/m 7,5 km/h (2 Bft) S 180 6,9 C 9,4 C 8,1 km/h (2 Bft)
13.07.2020 01:00 10,2 C 10,2 C 80 % 1028,6 hPa 0,0 l/m 7,5 km/h (2 Bft) S 180 6,9 C 9,4 C 8,1 km/h (2 Bft)
13.07.2020 00:58 10,2 C 10,3 C 80 % 1028,6 hPa 0,0 l/m 7,2 km/h (2 Bft) S 180 6,9 C 9,6 C 7,1 km/h (2 Bft)
13.07.2020 00:56 10,2 C 10,2 C 80 % 1028,6 hPa 0,0 l/m 7,0 km/h (2 Bft) S 180 6,9 C 9,8 C 6,6 km/h (2 Bft)
13.07.2020 00:54 10,2 C 10,6 C 80 % 1028,6 hPa 0,0 l/m 7,2 km/h (2 Bft) S 180 6,9 C 9,6 C 7,9 km/h (2 Bft)
13.07.2020 00:52 10,2 C 10,5 C 80 % 1028,6 hPa 0,0 l/m 7,7 km/h (2 Bft) S-SW 202 6,9 C 9,3 C 7,9 km/h (2 Bft)
13.07.2020 00:50 10,2 C 10,5 C 80 % 1028,6 hPa 0,0 l/m 8,0 km/h (2 Bft) SO 135 6,9 C 9,1 C 8,1 km/h (2 Bft)
13.07.2020 00:48 10,2 C 10,6 C 80 % 1028,6 hPa 0,0 l/m 8,2 km/h (2 Bft) S 180 6,9 C 8,9 C 8,1 km/h (2 Bft)
13.07.2020 00:46 10,3 C 10,7 C 79 % 1028,6 hPa 0,0 l/m 8,9 km/h (2 Bft) S-SW 202 6,8 C 8,6 C 7,9 km/h (2 Bft)
13.07.2020 00:44 10,3 C 10,6 C 79 % 1028,6 hPa 0,0 l/m 9,2 km/h (2 Bft) SW 225 6,8 C 8,4 C 8,1 km/h (2 Bft)
13.07.2020 00:42 10,3 C 10,7 C 79 % 1028,6 hPa 0,0 l/m 8,7 km/h (2 Bft) S-SW 202 6,8 C 8,7 C 8,1 km/h (2 Bft)
13.07.2020 00:40 10,3 C 10,6 C 79 % 1028,6 hPa 0,0 l/m 8,2 km/h (2 Bft) S-SW 202 6,8 C 9,0 C 7,5 km/h (2 Bft)
13.07.2020 00:38 10,3 C 10,6 C 79 % 1028,6 hPa 0,0 l/m 7,7 km/h (2 Bft) S 180 6,8 C 9,4 C 8,7 km/h (2 Bft)
13.07.2020 00:36 10,4 C 10,6 C 79 % 1028,6 hPa 0,0 l/m 7,2 km/h (2 Bft) S 180 6,9 C 9,8 C 8,7 km/h (2 Bft)
13.07.2020 00:34 10,4 C 10,7 C 79 % 1028,6 hPa 0,0 l/m 6,8 km/h (2 Bft) S-SW 202 6,9 C 10,1 C 6,0 km/h (2 Bft)
13.07.2020 00:32 10,4 C 10,9 C 79 % 1028,6 hPa 0,0 l/m 6,8 km/h (2 Bft) SW 225 6,9 C 10,1 C 6,0 km/h (2 Bft)
13.07.2020 00:30 10,4 C 10,8 C 79 % 1028,6 hPa 0,0 l/m 6,5 km/h (2 Bft) S-SW 202 6,9 C 10,4 C 6,4 km/h (2 Bft)
13.07.2020 00:28 10,5 C 10,9 C 79 % 1028,6 hPa 0,0 l/m 6,3 km/h (2 Bft) S 180 7,0 C 10,5 C 6,4 km/h (2 Bft)
13.07.2020 00:26 10,5 C 10,9 C 79 % 1028,6 hPa 0,0 l/m 5,8 km/h (2 Bft) S 180 7,0 C 10,5 C 6,0 km/h (2 Bft)
13.07.2020 00:24 10,5 C 10,8 C 79 % 1028,6 hPa 0,0 l/m 5,3 km/h (1 Bft) S 180 7,0 C 10,5 C 6,0 km/h (2 Bft)
13.07.2020 00:22 10,5 C 10,8 C 79 % 1028,6 hPa 0,0 l/m 5,3 km/h (1 Bft) S 180 7,0 C 10,5 C 5,6 km/h (1 Bft)
13.07.2020 00:20 10,6 C 10,7 C 79 % 1028,6 hPa 0,0 l/m 5,6 km/h (1 Bft) S 180 7,1 C 10,6 C 5,2 km/h (1 Bft)
13.07.2020 00:18 10,6 C 10,9 C 79 % 1028,6 hPa 0,0 l/m 6,3 km/h (2 Bft) S-SW 202 7,1 C 10,6 C 4,1 km/h (1 Bft)
13.07.2020 00:16 10,6 C 11,0 C 79 % 1028,9 hPa 0,0 l/m 6,8 km/h (2 Bft) S 180 7,1 C 10,3 C 4,1 km/h (1 Bft)
13.07.2020 00:14 10,6 C 11,0 C 79 % 1028,9 hPa 0,0 l/m 7,7 km/h (2 Bft) S 180 7,1 C 9,7 C 6,0 km/h (2 Bft)
13.07.2020 00:12 10,6 C 11,0 C 79 % 1028,9 hPa 0,0 l/m 8,2 km/h (2 Bft) S 180 7,1 C 9,4 C 7,3 km/h (2 Bft)
13.07.2020 00:10 10,6 C 11,0 C 79 % 1028,9 hPa 0,0 l/m 8,2 km/h (2 Bft) S 180 7,1 C 9,4 C 7,5 km/h (2 Bft)
13.07.2020 00:08 10,7 C 11,0 C 79 % 1028,9 hPa 0,0 l/m 8,0 km/h (2 Bft) S 180 7,2 C 9,6 C 7,5 km/h (2 Bft)
13.07.2020 00:06 10,7 C 11,0 C 79 % 1028,9 hPa 0,0 l/m 7,7 km/h (2 Bft) S 180 7,2 C 9,8 C 8,3 km/h (2 Bft)
13.07.2020 00:04 10,7 C 11,1 C 79 % 1028,9 hPa 0,0 l/m 7,5 km/h (2 Bft) S 180 7,2 C 9,9 C 8,3 km/h (2 Bft)
13.07.2020 00:02 10,7 C 11,2 C 79 % 1028,9 hPa 0,0 l/m 7,2 km/h (2 Bft) S-SW 202 7,2 C 10,1 C 6,0 km/h (2 Bft)
13.07.2020 00:00 10,8 C 11,2 C 79 % 1028,9 hPa 0,0 l/m 7,0 km/h (2 Bft) S 180 7,3 C 10,4 C 6,0 km/h (2 Bft)
_ Min-Zeit 04:58 05:20 11:08 10:58 - 06:50 - - 04:58 05:06 06:10
Minimum _ 8,5 C 8,8 C 48 % 1026,8 hPa - 0,2 km/h (0 Bft) - - 5,6 C 7,5 C 0,0 km/h (0 Bft)
_ Max-Zeit 11:20 11:20 05:24 00:00 00:00 10:32 - - 08:38 11:20 10:22
Maximum _ 20,5 C 29,0 C 83 % 1028,9 hPa 0,0 l/m 11,3 km/h
NO (2 Bft)
- - 10,7 C 20,5 C 14,7 km/h
O-NO (3 Bft)
Durchschnitt _ 11,9 C 12,9 C 76 % 1027,8 hPa #0,0 l/m 6,1 km/h (2 Bft) S - 7,6 C 11,5 C 6,1 km/h (2 Bft)